Weather History for KPEX - March, 2014

Change the Weather History Date:

Saturday, March 22, 2014

  Actual Average (KLJF) Record (KLJF)
Temperature  
Mean Temperature 12 °F -  
Max Temperature 18 °F 42 °F 60 °F (2012)
Min Temperature 6 °F 23 °F -2 °F (1955)
Degree Days  
Heating Degree Days 53    
Moisture  
Dew Point 3 °F    
Average Humidity 66    
Maximum Humidity 76    
Minimum Humidity 57    
Precipitation  
Precipitation 0.00 in - - ()
Sea Level Pressure  
Sea Level Pressure 30.41 in    
Wind  
Wind Speed 14 mph (NW)    
Max Wind Speed 18 mph    
Max Gust Speed 26 mph    
Visibility 10 miles    
Events      
Averages and records for this station are not official NWS values.
T = Trace of Precipitation, MM = Missing Value Source: NWS Daily Summary

Daily Weather History Graph

Daily Weather History Graph

Search for Another Location

Airport or City:

Trip Planner

Search our weather history database for the weather conditions in past years. The results will help you decide how hot, cold, wet, or windy it might be!

Date:

Astronomy

Mar. 22, 2014 Rise Set
Actual Time 7:18 AM CDT 7:34 PM CDT
Civil Twilight 6:48 AM CDT 8:03 PM CDT
Nautical Twilight 6:14 AM CDT 8:38 PM CDT
Astronomical Twilight 5:38 AM CDT 9:14 PM CDT
Moon 1:07 AM CDT (3/22) 10:48 AM CDT (3/22)
Length of Visible Light 13h 15m
Length of Day
12h 15m
Waning Gibbous, 65% of the Moon is Illuminated
Mar 22
Waning Gibbous
Mar 23
Last Quarter
Mar 30
New
Apr 7
First Quarter
Apr 15
Full

Hourly Weather History & Observations

Time (CDT) Temp. Windchill Dew Point Humidity Pressure Visibility Wind Dir Wind Speed Gust Speed Precip Events Conditions
12:12 AM 12.9 °F -3.9 °F 5.2 °F 71% 30.24 in 10.0 mi NW 17.3 mph 25.3 mph N/A   Clear
12:32 AM 12.9 °F -3.9 °F 5.9 °F 74% 30.24 in 10.0 mi NW 17.3 mph 24.2 mph N/A   Clear
12:52 AM 12.4 °F -3.5 °F 5.7 °F 75% 30.25 in 10.0 mi NW 15.0 mph 20.7 mph N/A   Clear
1:12 AM 12.2 °F -5.3 °F 4.5 °F 71% 30.26 in 10.0 mi NW 18.4 mph 23.0 mph N/A   Clear
1:32 AM 11.8 °F -5.3 °F 4.5 °F 72% 30.26 in 10.0 mi NW 17.3 mph 24.2 mph N/A   Clear
1:52 AM 11.1 °F -3.9 °F 3.9 °F 73% 30.26 in 10.0 mi NW 12.7 mph 21.9 mph N/A   Clear
2:12 AM 10.6 °F -6.9 °F 3.9 °F 75% 30.28 in 10.0 mi NW 17.3 mph 24.2 mph N/A   Clear
2:31 AM 10.2 °F -6.9 °F 2.7 °F 72% 30.28 in 10.0 mi NW 16.1 mph 26.5 mph N/A   Clear
2:52 AM 9.7 °F -7.0 °F 2.3 °F 72% 30.30 in 10.0 mi NW 15.0 mph 25.3 mph N/A   Clear
3:12 AM 9.3 °F -9.1 °F 2.1 °F 73% 30.30 in 10.0 mi NW 18.4 mph 25.3 mph N/A   Clear
3:33 AM 8.6 °F -7.0 °F 2.3 °F 76% 30.30 in 10.0 mi NNW 12.7 mph 23.0 mph N/A   Clear
3:52 AM 8.2 °F -8.2 °F 1.2 °F 73% 30.31 in 10.0 mi NNW 13.8 mph 23.0 mph N/A   Clear
4:12 AM 7.7 °F -9.5 °F 1.0 °F 74% 30.32 in 10.0 mi NW 15.0 mph 20.7 mph N/A   Clear
4:32 AM 7.5 °F -6.9 °F 0.7 °F 74% 30.32 in 10.0 mi NW 10.4 mph - N/A   Clear
4:52 AM 7.3 °F -7.9 °F 0.5 °F 74% 30.33 in 10.0 mi NW 11.5 mph 17.3 mph N/A   Clear
5:12 AM 7.2 °F -6.4 °F 0.5 °F 74% 30.33 in 10.0 mi NW 9.2 mph - N/A   Clear
5:32 AM 6.8 °F -8.6 °F 0.1 °F 74% 30.34 in 10.0 mi NW 11.5 mph - N/A   Clear
5:52 AM 6.8 °F -10.7 °F -0.2 °F 73% 30.35 in 10.0 mi NNW 15.0 mph 20.7 mph N/A   Clear
6:12 AM 6.6 °F -7.1 °F -0.4 °F 73% 30.36 in 10.0 mi NNW 9.2 mph 17.3 mph N/A   Clear
6:32 AM 6.6 °F -10.2 °F -0.6 °F 72% 30.37 in 10.0 mi NNW 13.8 mph 18.4 mph N/A   Clear
6:52 AM 6.3 °F -12.0 °F -1.5 °F 71% 30.38 in 10.0 mi NNW 16.1 mph 23.0 mph N/A   Clear
7:11 AM 6.3 °F -9.2 °F -1.3 °F 71% 30.38 in 10.0 mi NNW 11.5 mph 17.3 mph N/A   Clear
7:31 AM 6.1 °F -9.5 °F -1.8 °F 70% 30.39 in 10.0 mi NNW 11.5 mph 19.6 mph N/A   Clear
7:52 AM 6.4 °F -7.3 °F -2.0 °F 68% 30.40 in 10.0 mi NW 9.2 mph - N/A   Clear
8:12 AM 6.8 °F -9.3 °F -1.7 °F 68% 30.41 in 10.0 mi NNW 12.7 mph 18.4 mph N/A   Clear
8:32 AM 7.5 °F -10.3 °F -1.7 °F 66% 30.41 in 10.0 mi NW 16.1 mph 20.7 mph N/A   Clear
8:51 AM 8.1 °F -10.2 °F -1.3 °F 66% 30.41 in 10.0 mi NW 17.3 mph 21.9 mph N/A   Clear
9:12 AM 8.6 °F -8.3 °F -1.1 °F 65% 30.43 in 10.0 mi NW 15.0 mph - N/A   Clear
9:32 AM 9.0 °F -7.9 °F -0.9 °F 64% 30.43 in 10.0 mi NW 15.0 mph 20.7 mph N/A   Clear
9:52 AM 9.3 °F -7.4 °F -0.9 °F 63% 30.44 in 10.0 mi NW 15.0 mph 20.7 mph N/A   Clear
10:12 AM 9.7 °F -4.2 °F 0.1 °F 65% 30.44 in 10.0 mi NW 10.4 mph 21.9 mph N/A   Clear
10:31 AM 10.2 °F -3.5 °F 0.3 °F 64% 30.44 in 10.0 mi NNW 10.4 mph 18.4 mph N/A   Clear
10:52 AM 11.1 °F -3.9 °F 0.9 °F 63% 30.45 in 10.0 mi NW 12.7 mph 17.3 mph N/A   Clear
11:12 AM 11.3 °F -2.9 °F 0.7 °F 62% 30.45 in 10.0 mi NNW 11.5 mph - N/A   Clear
11:32 AM 12.2 °F -3.7 °F 2.1 °F 64% 30.45 in 10.0 mi NNW 15.0 mph - N/A   Clear
11:52 AM 12.9 °F -1.6 °F 2.5 °F 63% 30.45 in 10.0 mi NNW 12.7 mph 17.3 mph N/A   Clear
12:12 PM 13.8 °F 0.2 °F 3.4 °F 63% 30.45 in 10.0 mi NNW 11.5 mph - N/A   Clear
12:32 PM 14.5 °F -0.2 °F 2.8 °F 60% 30.46 in 10.0 mi NNW 13.8 mph 21.9 mph N/A   Clear
12:52 PM 14.9 °F -0.3 °F 2.7 °F 58% 30.45 in 10.0 mi NW 15.0 mph 23.0 mph N/A   Clear
1:12 PM 15.6 °F 0.1 °F 3.4 °F 59% 30.45 in 10.0 mi NW 16.1 mph 23.0 mph N/A   Clear
1:32 PM 16.0 °F 0.6 °F 3.9 °F 59% 30.45 in 10.0 mi NW 16.1 mph 20.7 mph N/A   Clear
1:52 PM 17.1 °F 2.5 °F 5.5 °F 61% 30.45 in 10.0 mi NW 15.0 mph 21.9 mph N/A   Scattered Clouds
2:12 PM 17.2 °F 2.7 °F 5.0 °F 59% 30.44 in 10.0 mi NW 15.0 mph 23.0 mph N/A   Scattered Clouds
2:32 PM 17.6 °F 2.7 °F 5.9 °F 60% 30.44 in 10.0 mi NNW 16.1 mph - N/A   Scattered Clouds
2:52 PM 18.1 °F 2.4 °F 5.7 °F 58% 30.44 in 10.0 mi NW 18.4 mph 24.2 mph N/A   Scattered Clouds
3:12 PM 18.5 °F 4.3 °F 6.4 °F 59% 30.44 in 10.0 mi NW 15.0 mph 24.2 mph N/A   Mostly Cloudy
3:32 PM 18.3 °F 3.6 °F 5.9 °F 58% 30.43 in 10.0 mi NW 16.1 mph 23.0 mph N/A   Mostly Cloudy
3:52 PM 18.3 °F 4.1 °F 5.9 °F 58% 30.43 in 10.0 mi NNW 15.0 mph 21.9 mph N/A   Scattered Clouds
4:12 PM 18.1 °F 3.4 °F 6.1 °F 59% 30.43 in 10.0 mi NNW 16.1 mph 20.7 mph N/A   Mostly Cloudy
4:32 PM 18.3 °F 3.1 °F 5.7 °F 58% 30.43 in 10.0 mi NW 17.3 mph 21.9 mph N/A   Scattered Clouds
4:52 PM 18.1 °F 3.9 °F 5.9 °F 59% 30.43 in 10.0 mi NW 15.0 mph 23.0 mph N/A   Scattered Clouds
5:11 PM 18.1 °F 4.4 °F 5.4 °F 57% 30.44 in 10.0 mi NW 13.8 mph 24.2 mph N/A   Scattered Clouds
5:32 PM 17.2 °F 3.3 °F 5.7 °F 61% 30.44 in 10.0 mi NW 13.8 mph 19.6 mph N/A   Scattered Clouds
5:52 PM 17.6 °F 3.7 °F 5.0 °F 58% 30.45 in 10.0 mi NW 13.8 mph - N/A   Scattered Clouds
6:12 PM 17.6 °F 4.3 °F 5.9 °F 60% 30.45 in 10.0 mi NNW 12.7 mph 19.6 mph N/A   Mostly Cloudy
6:32 PM 17.2 °F 2.7 °F 5.2 °F 59% 30.45 in 10.0 mi NNW 15.0 mph 19.6 mph N/A   Mostly Cloudy
6:52 PM 16.7 °F 3.8 °F 5.0 °F 60% 30.45 in 10.0 mi NNW 11.5 mph 19.6 mph N/A   Mostly Cloudy
7:13 PM 16.2 °F 3.9 °F 5.2 °F 62% 30.46 in 10.0 mi NNW 10.4 mph 17.3 mph N/A   Mostly Cloudy
7:32 PM 15.8 °F 4.2 °F 5.4 °F 63% 30.46 in 10.0 mi NW 9.2 mph 16.1 mph N/A   Mostly Cloudy
7:52 PM 15.3 °F 2.0 °F 4.8 °F 63% 30.46 in 10.0 mi NNW 11.5 mph - N/A   Mostly Cloudy
8:12 PM 14.7 °F 2.1 °F 4.8 °F 65% 30.47 in 10.0 mi NNW 10.4 mph - N/A   Clear
8:32 PM 14.5 °F 1.9 °F 4.8 °F 65% 30.48 in 10.0 mi NNW 10.4 mph - N/A   Clear
8:52 PM 14.0 °F 2.0 °F 4.6 °F 66% 30.48 in 10.0 mi NNW 9.2 mph - N/A   Clear
9:12 PM 13.8 °F 1.8 °F 4.8 °F 67% 30.49 in 10.0 mi NW 9.2 mph - N/A   Clear
9:32 PM 13.1 °F 7.1 °F 4.8 °F 70% 30.49 in 10.0 mi NNW 3.5 mph - N/A   Clear
9:51 PM 12.9 °F 2.6 °F 5.0 °F 71% 30.49 in 10.0 mi NNW 6.9 mph - N/A   Clear
10:12 PM 12.6 °F 1.1 °F 4.6 °F 71% 30.50 in 10.0 mi NNW 8.1 mph - N/A   Clear
10:32 PM 12.0 °F - 4.1 °F 71% 30.50 in 10.0 mi Calm Calm - N/A   Clear
10:52 PM 11.5 °F 2.1 °F 3.6 °F 71% 30.50 in 10.0 mi NNW 5.8 mph - N/A   Clear
11:12 PM 11.1 °F 0.4 °F 2.8 °F 69% 30.50 in 10.0 mi NNW 6.9 mph - N/A   Clear
11:32 PM 10.9 °F - 2.8 °F 70% 30.50 in 10.0 mi Calm Calm - N/A   Clear
11:52 PM 10.2 °F - 2.5 °F 71% 30.50 in 10.0 mi Calm Calm - N/A   Clear